Saint Thomas, VI (00801)

1:44 PM AST on July 20, 2017 (GMT -0400)
Cape Air, Crown Mountain Summit, St. Thomas, USVI | | Change Station

Elev 1534 ft 18.36 °N, 64.97 °W | Updated 2 seconds ago

Partly Cloudy
Partly Cloudy
80.5 °F
Feels Like 85 °F
N
11.0
Wind Variable Wind from SE
Gusts 16.0 mph

Today
High -- | Low -- °F
--% Chance of Precip.
Yesterday
High -- | Low -- °F
Precip. -- in
Pressure 30.09 in
Visibility 10.0 miles
Clouds Few 3000 ft
Heat Index 85 °F
Dew Point 74 °F
Humidity 81%
Rainfall 0.00 in
Snow Depth Not available.
5:53 AM 6:58 PM
Waning Crescent, 10% visible
METAR TIST 201653Z 07012G19KT 10SM FEW030 31/24 A3006 RMK AO2 SLP188 T03060239 $
Pressure 30.09 in
Visibility 10.0 miles
Clouds Few 3000 ft
Heat Index 85 °F
Dew Point 74 °F
Humidity 81%
Rainfall 0.00 in
Snow Depth Not available.
5:53 AM 6:58 PM
Waning Crescent, 10% visible
METAR TIST 201653Z 07012G19KT 10SM FEW030 31/24 A3006 RMK AO2 SLP188 T03060239 $

Get Severe Weather Alerts

Thanks for signing up!

Be on the lookout for a verification email in your inbox.

You'll start receiving the daily forecast at 6 AM.

×

10-Day Weather Forecast

Almanac

Astronomy

Jul. 20, 2017 Rise Set
Actual Time
Civil Twilight
Nautical Twilight
Astronomical Twilight
Moon
Length of Visible Light
Length of Day
Tomorrow will be .
, % of the Moon is Illuminated

Today's Extremes

State Highs State Lows

Community

WunderPhotos

Category 6

Welcome to Category 6. This is the collective home for Weather Underground's featured writeups by Dr. Jeff Masters (right), Bob Henson (left), Chris Burt, and other regular contributors.

Nearby

Air Quality

  Air Quality AQ Index Pollutant
Not available.

Snow Depth

Station Depth Elevation

Earthquake Activity

City Distance Mag. Time & Date
Minimum magnitude displayed is 2.5.

Coastal Water Temperatures

Place Temperature

Stations

Nearby Weather Stations

Station Location Temp. Windchill Dew Point Humidity Wind Precip. Elev Updated Type
                   

Watches & Warnings

There are currently no watches in effect.